[[{"header":{"parameterUnit":"m.s-1","parameterCategory":1,"la1":30.2991,"la2":30.254,"lo1":-89.0895,"lo2":-89.0444,"dy":0.0017,"dx":0.0017,"nx":28,"ny":28,"refTime":"2025-08-04T09:00:00:Z","depth":0,"parameterNumber":2,"parameterNumberName":"U-component_of_WINDS"},"data":[0,0,0,0,0,0,0,0,0,0,0,0,0,0,0,0,0,0,0,0,0,0,0,0,0,0,0,0,0,0,0,0,0,0,0,0,0,0,0,0,0,0,0,0,0,0,0,0,0,0,0,0,0,0,0,0,0,0,-1.7861,-1.7862,0,-1.79,-1.79,-1.7901,-1.7845,-1.7843,-1.7841,-1.7839,-1.7882,-1.7885,-1.7888,0,0,0,0,0,0,0,0,0,0,0,0,0,-1.7743,-1.7745,-1.7861,-1.7862,-1.7862,-1.79,-1.79,-1.7901,-1.7846,-1.7843,-1.7841,-1.7838,-1.7881,-1.7884,-1.7888,0,0,0,0,0,0,0,0,0,0,0,0,0,-1.7789,-1.7746,-1.7861,-1.7839,-1.7838,-1.79,-1.79,-1.7901,-1.7846,-1.7843,-1.784,-1.7837,-1.788,-1.7884,-1.7888,-1.7975,0,0,-1.7902,-1.7904,0,0,0,0,0,0,0,0,-1.7786,-1.7793,-1.7842,-1.7841,-1.7839,-1.7865,-1.7874,-1.7926,-1.7847,-1.7843,-1.7839,-1.7836,-1.7879,-1.7883,-1.7897,-1.7977,-1.7979,-1.7902,-1.7905,-1.7907,-1.7908,0,0,0,0,0,0,0,-1.7783,-1.7792,-1.7877,-1.7843,-1.7841,-1.7828,-1.7831,-1.7883,-1.7877,-1.7843,-1.7839,-1.7844,-1.7877,-1.7893,-1.7897,-1.7979,-1.7902,-1.7906,-1.7909,-1.7911,-1.8132,-1.8135,0,0,0,0,0,0,-1.7782,-1.7789,-1.7875,-1.7878,-1.7805,-1.7833,-1.7836,-1.7859,-1.7876,-1.7876,-1.7847,-1.7841,-1.7886,-1.7892,-1.7899,-1.8001,-1.7907,-1.7911,-1.7914,-1.8129,-1.8133,-1.8136,0,0,0,0,0,0,-1.778,-1.7791,-1.7874,-1.7832,-1.7842,-1.7838,-1.7864,-1.7862,-1.7877,-1.7879,-1.7878,-1.7863,-1.7884,-1.7892,-1.7956,-1.8002,-1.7913,-1.7917,-1.8125,-1.813,-1.8135,-1.8206,0,0,0,0,0,0,-1.7777,-1.779,-1.7822,-1.7833,-1.7844,-1.793,-1.7867,-1.7865,-1.7884,-1.7878,-1.7894,-1.7894,-1.7883,-1.795,-1.796,-1.8006,-1.7921,-1.8121,-1.8127,-1.8133,-1.82,-1.8213,-1.8224,0,0,0,0,0,-1.7773,-1.7842,-1.7824,-1.7835,-1.7884,-1.7933,-1.7939,-1.7924,-1.7888,-1.7921,-1.7922,-1.7894,-1.7995,-1.7957,-1.7968,-1.8016,-1.8118,-1.8126,-1.8133,-1.8195,-1.8211,-1.8224,0,0,0,0,0,0,-1.7837,-1.7843,-1.7823,-1.7898,-1.7915,-1.7923,-1.7964,-1.7941,-1.797,-1.7962,-1.7943,-1.7947,-1.8015,-1.8022,-1.7979,-1.8101,-1.8051,-1.8061,-1.8094,-1.8109,-1.8121,-1.8118,-1.7924,0,0,0,0,0,-1.7859,-1.7897,-1.7901,-1.7966,-1.7975,-1.7968,-1.7989,-1.7975,-1.7993,-1.8,-1.8006,-1.8025,-1.8061,-1.8085,-1.8119,-1.8201,-1.8204,-1.8239,-1.8251,-1.8261,-1.827,-1.8314,-1.833,-1.816,-1.816,-1.816,0,0,-1.7907,-1.7915,-1.794,-1.7979,-1.7991,-1.8031,-1.7975,-1.802,-1.805,-1.8007,-1.8068,-1.8073,-1.8093,-1.8166,-1.8199,-1.8174,-1.8318,-1.8271,-1.8279,-1.8282,-1.8324,-1.834,-1.8354,-1.8165,-1.8164,-1.8163,0,0,-1.8014,-1.8023,-1.8079,-1.8091,-1.811,-1.8105,-1.8118,-1.813,-1.8131,-1.8191,-1.816,-1.8196,-1.8258,-1.8274,-1.829,-1.8403,-1.8378,-1.8414,-1.8478,-1.8521,-1.8535,-1.8546,-1.8587,-1.8602,-1.8423,-1.8423,-1.8423,0,-1.807,-1.8129,-1.811,-1.8158,-1.8176,-1.8138,-1.8194,-1.8208,-1.8237,-1.8251,-1.8222,-1.83,-1.8311,-1.8387,-1.8414,-1.8429,-1.8444,-1.8412,-1.8534,-1.8546,-1.8556,-1.8595,-1.861,-1.8428,-1.8427,-1.8427,-1.8426,0,-1.8198,-1.824,-1.8282,-1.831,-1.8333,-1.8385,-1.8375,-1.8401,-1.8385,-1.8383,-1.8445,-1.8457,-1.8492,-1.8509,-1.8494,-1.8583,-1.8567,-1.8537,-1.8486,-1.8577,-1.8613,-1.8628,-1.8434,-1.8432,-1.8431,-1.843,0,0,-1.8347,-1.8363,-1.8379,-1.8391,-1.8409,-1.8441,-1.8491,-1.8524,-1.8547,-1.8568,-1.861,-1.8664,-1.8636,-1.8654,-1.8641,-1.8679,-1.8768,-1.8644,-1.8644,-1.8667,-1.8867,-1.889,-1.8907,-1.8752,-1.8754,-1.8756,-1.8866,0,-1.8454,-1.8539,-1.8524,-1.8608,-1.8646,-1.8611,-1.8654,-1.867,-1.867,-1.8703,-1.8703,-1.8742,-1.8701,-1.8712,-1.8748,-1.875,-1.8808,-1.8742,-1.8791,-1.8793,-1.8787,-1.8926,-1.895,-1.9053,-1.8879,-1.8882,-1.8884,0,-1.859,-1.8615,-1.8702,-1.8714,-1.8729,-1.8769,-1.8798,-1.883,-1.8848,-1.8845,-1.8865,-1.8845,-1.8896,-1.8845,-1.8915,-1.887,-1.889,-1.8894,-1.8897,-1.8902,-1.8844,-1.8934,-1.9085,-1.9101,-1.8905,-1.8904,-1.8902,0,-1.8689,-1.8745,-1.8805,-1.8816,-1.8831,-1.886,-1.8868,-1.8882,-1.8903,-1.8929,-1.8943,-1.8975,-1.8992,-1.9018,-1.9008,-1.8971,-1.908,-1.9028,-1.908,-1.908,-1.9105,-1.9103,-1.9261,-1.9117,-1.9117,-1.9116,-1.9116,0,-1.881,-1.8865,-1.885,-1.8887,-1.8947,-1.8929,-1.899,-1.8994,-1.9007,-1.9045,-1.9016,-1.9052,-1.9036,-1.9071,-1.9064,-1.9123,-1.9131,-1.9131,-1.9128,-1.9134,-1.9134,-1.9146,-1.9139,-1.9121,-1.912,-1.9119,-1.9118,0,-1.8932,-1.8924,-1.8986,-1.8995,-1.8999,-1.9043,-1.9051,-1.9086,-1.9083,-1.9131,-1.9141,-1.9137,-1.9177,-1.9169,-1.9213,-1.9208,-1.9283,-1.9271,-1.9277,-1.9274,-1.9326,-1.9322,-1.9498,-1.952,-1.9362,-1.9363,-1.9365,0,-1.901,-1.9051,-1.9064,-1.9086,-1.9096,-1.9133,-1.9154,-1.9138,-1.9161,-1.9184,-1.9217,-1.9254,-1.9282,-1.9348,-1.935,-1.9383,-1.9373,-1.9432,-1.9378,-1.9382,-1.9374,-1.9371,-1.9376,-1.9443,-1.9445,-1.9446,-1.9447,0,-1.9149,-1.9143,-1.9173,-1.9203,-1.9229,-1.9252,-1.9272,-1.9293,-1.9278,-1.9306,-1.9346,-1.9368,-1.9413,-1.945,-1.9481,-1.949,-1.9467,-1.9464,-1.9478,-1.9484,-1.9486,-1.9486,-1.9306,-1.9461,-1.9459,-1.9458,-1.9458,-1.9457,-1.9251,-1.9286,-1.93,-1.9336,-1.9349,-1.9369,-1.9402,-1.9403,-1.9436,-1.947,-1.9459,-1.9505,-1.9522,-1.9561,-1.9573,-1.9609,-1.9587,-1.9607,-1.9612,-1.9618,-1.9624,-1.948,-1.9615,-1.9615,-1.9614,-1.9614,-1.9614,0,-1.9388,-1.9396,-1.9429,-1.9458,-1.9486,-1.946,-1.9482,-1.9507,-1.9547,-1.9564,-1.9593,-1.9639,-1.9675,-1.968,-1.9714,-1.9742,-1.9732,-1.9752,-1.9749,-1.9752,-1.9642,-1.9626,-1.9759,-1.9759,-1.9759,-1.9759,-1.9759,-1.9759,-1.9463,-1.9521,-1.9517,-1.9582,-1.9589,-1.9632,-1.9647,-1.9665,-1.9679,-1.9731,-1.976,-1.9763,-1.9775,-1.981,-1.9842,-1.9843,-1.9857,-1.9881,-1.9877,-1.9774,-1.976,-1.9746,-1.9731,-1.9884,-1.9884,-1.9984,-1.9985,-1.9986]},{"header":{"parameterUnit":"m.s-1","parameterCategory":1,"la1":30.2991,"la2":30.254,"lo1":-89.0895,"lo2":-89.0444,"dy":0.0017,"dx":0.0017,"nx":28,"ny":28,"refTime":"2025-08-04T09:00:00:Z","depth":0,"parameterNumber":3,"parameterNumberName":"V-component_of_WINDS"},"data":[0,0,0,0,0,0,0,0,0,0,0,0,0,0,0,0,0,0,0,0,0,0,0,0,0,0,0,0,0,0,0,0,0,0,0,0,0,0,0,0,0,0,0,0,0,0,0,0,0,0,0,0,0,0,0,0,0,0,-0.7239,-0.7239,0,-0.73,-0.73,-0.7301,-0.7317,-0.7317,-0.7316,-0.7316,-0.7377,-0.7379,-0.738,0,0,0,0,0,0,0,0,0,0,0,0,0,-0.7134,-0.7136,-0.7239,-0.7239,-0.724,-0.7299,-0.73,-0.7301,-0.7317,-0.7317,-0.7316,-0.7316,-0.7376,-0.7378,-0.7381,0,0,0,0,0,0,0,0,0,0,0,0,0,-0.7186,-0.7137,-0.7238,-0.7255,-0.7257,-0.7299,-0.73,-0.7301,-0.7317,-0.7317,-0.7316,-0.7316,-0.7375,-0.7378,-0.7381,-0.741,0,0,-0.739,-0.7391,0,0,0,0,0,0,0,0,-0.7183,-0.719,-0.7252,-0.7254,-0.7257,-0.73,-0.7286,-0.7338,-0.7317,-0.7295,-0.7316,-0.7315,-0.7352,-0.7356,-0.7369,-0.7413,-0.7415,-0.739,-0.7392,-0.7393,-0.7394,0,0,0,0,0,0,0,-0.7179,-0.7187,-0.7263,-0.7253,-0.7256,-0.7259,-0.7266,-0.7296,-0.7325,-0.7296,-0.7298,-0.7305,-0.7353,-0.7366,-0.737,-0.7416,-0.739,-0.7393,-0.7394,-0.7396,-0.7487,-0.7487,0,0,0,0,0,0,-0.7173,-0.7184,-0.7261,-0.7264,-0.7218,-0.7262,-0.7269,-0.7287,-0.7325,-0.733,-0.7305,-0.7305,-0.7361,-0.7367,-0.7373,-0.741,-0.7393,-0.7396,-0.7398,-0.7486,-0.7487,-0.7488,0,0,0,0,0,0,-0.7171,-0.718,-0.7258,-0.7225,-0.7235,-0.7264,-0.7284,-0.7288,-0.7302,-0.7332,-0.7337,-0.7314,-0.7361,-0.7369,-0.7401,-0.7412,-0.7397,-0.74,-0.7485,-0.7486,-0.7487,-0.7483,0,0,0,0,0,0,-0.7168,-0.7179,-0.719,-0.7225,-0.7237,-0.7286,-0.7284,-0.729,-0.7307,-0.7308,-0.7341,-0.7346,-0.7361,-0.7396,-0.7404,-0.7416,-0.7402,-0.7485,-0.7486,-0.7487,-0.7482,-0.7484,-0.7485,0,0,0,0,0,-0.7164,-0.7186,-0.7191,-0.72,-0.7252,-0.7286,-0.7293,-0.7311,-0.7308,-0.732,-0.7339,-0.7345,-0.7409,-0.7399,-0.7408,-0.7421,-0.7484,-0.7485,-0.7487,-0.7482,-0.7483,-0.7485,0,0,0,0,0,0,-0.7152,-0.7191,-0.7197,-0.7231,-0.7255,-0.7289,-0.7304,-0.7312,-0.7337,-0.7337,-0.7357,-0.7365,-0.7395,-0.7411,-0.74,-0.7451,-0.7447,-0.745,-0.744,-0.7442,-0.7443,-0.7439,-0.7405,0,0,0,0,0,-0.7153,-0.7178,-0.7211,-0.7238,-0.725,-0.7275,-0.7291,-0.7302,-0.7328,-0.7338,-0.736,-0.7384,-0.741,-0.7427,-0.7452,-0.7484,-0.7492,-0.7497,-0.7499,-0.75,-0.7502,-0.7521,-0.7524,-0.7493,-0.7493,-0.7493,0,0,-0.7156,-0.7181,-0.7195,-0.7236,-0.7257,-0.7282,-0.7284,-0.731,-0.7329,-0.7342,-0.7374,-0.7391,-0.7419,-0.7452,-0.7467,-0.7466,-0.7513,-0.7502,-0.7502,-0.7505,-0.7523,-0.7526,-0.7529,-0.7494,-0.7494,-0.7493,0,0,-0.7175,-0.7196,-0.7221,-0.7241,-0.7272,-0.7289,-0.7295,-0.7327,-0.7339,-0.7372,-0.7382,-0.7405,-0.7448,-0.7469,-0.7484,-0.7511,-0.7517,-0.7518,-0.7526,-0.7544,-0.7546,-0.7549,-0.7559,-0.7562,-0.7521,-0.7521,-0.7521,0,-0.7174,-0.7214,-0.7232,-0.7259,-0.7277,-0.729,-0.7316,-0.7334,-0.7372,-0.7383,-0.7381,-0.7437,-0.7457,-0.7495,-0.7502,-0.7514,-0.7521,-0.7515,-0.7544,-0.7547,-0.7549,-0.7559,-0.7563,-0.7521,-0.7521,-0.7521,-0.7521,0,-0.7212,-0.7239,-0.7255,-0.7292,-0.7311,-0.7337,-0.736,-0.7377,-0.7387,-0.7403,-0.7437,-0.7461,-0.7492,-0.7502,-0.7511,-0.7541,-0.7539,-0.754,-0.7537,-0.7552,-0.7562,-0.7565,-0.7521,-0.7521,-0.7521,-0.7521,0,0,-0.7225,-0.7272,-0.7278,-0.7295,-0.733,-0.7351,-0.7377,-0.7408,-0.7423,-0.7447,-0.747,-0.7507,-0.7509,-0.7527,-0.7539,-0.7554,-0.7575,-0.7554,-0.7555,-0.7558,-0.7609,-0.7609,-0.7613,-0.7579,-0.758,-0.758,-0.7607,0,-0.7248,-0.7297,-0.7314,-0.7354,-0.7379,-0.7392,-0.7415,-0.7439,-0.7455,-0.7479,-0.7496,-0.7522,-0.7522,-0.7533,-0.7549,-0.7569,-0.7585,-0.7567,-0.76,-0.7601,-0.7593,-0.7618,-0.7617,-0.7641,-0.7611,-0.7612,-0.7612,0,-0.7282,-0.7309,-0.7351,-0.7383,-0.7395,-0.7415,-0.7445,-0.7467,-0.7494,-0.7505,-0.7525,-0.7536,-0.7564,-0.7558,-0.7596,-0.7583,-0.7598,-0.7609,-0.7611,-0.7615,-0.7608,-0.7623,-0.7649,-0.7653,-0.7618,-0.7618,-0.7617,0,-0.7288,-0.7334,-0.7366,-0.738,-0.7418,-0.7432,-0.7449,-0.7475,-0.7493,-0.7519,-0.753,-0.7559,-0.7574,-0.7596,-0.7614,-0.7608,-0.7651,-0.7646,-0.7661,-0.766,-0.767,-0.7669,-0.7699,-0.7678,-0.7678,-0.7678,-0.7678,0,-0.7313,-0.7338,-0.7369,-0.7388,-0.7417,-0.7437,-0.7465,-0.7482,-0.7506,-0.7529,-0.7541,-0.7562,-0.7585,-0.7608,-0.7623,-0.7653,-0.7659,-0.7669,-0.7672,-0.7668,-0.7667,-0.7678,-0.7677,-0.7679,-0.7679,-0.7678,-0.7678,0,-0.7325,-0.7346,-0.7382,-0.7415,-0.7424,-0.7444,-0.7473,-0.7492,-0.7509,-0.7537,-0.7545,-0.7571,-0.76,-0.762,-0.7656,-0.7666,-0.7699,-0.7702,-0.769,-0.7692,-0.7705,-0.7704,-0.7744,-0.7751,-0.7724,-0.7724,-0.7725,0,-0.734,-0.736,-0.7396,-0.7412,-0.7429,-0.7455,-0.7473,-0.7494,-0.7512,-0.7545,-0.756,-0.7589,-0.7614,-0.7659,-0.7681,-0.7709,-0.7714,-0.7726,-0.7718,-0.7713,-0.7715,-0.7713,-0.7716,-0.7727,-0.7727,-0.7728,-0.7728,0,-0.7364,-0.7373,-0.74,-0.743,-0.7451,-0.7475,-0.75,-0.7512,-0.7537,-0.7557,-0.7587,-0.7606,-0.7644,-0.7673,-0.7703,-0.772,-0.7728,-0.773,-0.7735,-0.7731,-0.7724,-0.7728,-0.7694,-0.7729,-0.7729,-0.7729,-0.7729,-0.7729,-0.7378,-0.7397,-0.7425,-0.7454,-0.7475,-0.7497,-0.7517,-0.7537,-0.7562,-0.7595,-0.7605,-0.7636,-0.7663,-0.7704,-0.7721,-0.7746,-0.7745,-0.7752,-0.7754,-0.7755,-0.7756,-0.7719,-0.7751,-0.7751,-0.7751,-0.7751,-0.7751,0,-0.7403,-0.7422,-0.7449,-0.7483,-0.7505,-0.7511,-0.7539,-0.7557,-0.7585,-0.7609,-0.7634,-0.7668,-0.7697,-0.7721,-0.775,-0.7765,-0.777,-0.7772,-0.7772,-0.7775,-0.7754,-0.7747,-0.7768,-0.7768,-0.7768,-0.7768,-0.7768,-0.7768,-0.7419,-0.7451,-0.7464,-0.7507,-0.7526,-0.7557,-0.7572,-0.7593,-0.7613,-0.7651,-0.7675,-0.7691,-0.7715,-0.7747,-0.7773,-0.7779,-0.779,-0.7792,-0.7799,-0.7779,-0.7777,-0.7775,-0.7769,-0.7794,-0.7794,-0.7818,-0.7819,-0.7819]}]]